Du Bois, PA

9:34 PM EDT on April 19, 2018 (GMT -0400)
Du Bois-Jefferson County

Weather History for KDUJ - March, 2013

Change the Weather History Date:

Tuesday, March 19, 2013

  Actual Average Record
Temperature  
Mean Temperature 30 °F 36 °F  
Max Temperature 36 °F 45 °F 67 °F (1968)
Min Temperature 24 °F 26 °F -6 °F (1967)
Degree Days  
Heating Degree Days 35 29  
Month to date heating degree days 652 614  
Since 1 July heating degree days 5375 5637  
Cooling Degree Days 0 0  
Month to date cooling degree days 0 0  
Year to date cooling degree days 0 0  
Moisture  
Dew Point 25 °F    
Average Humidity 81    
Maximum Humidity 100    
Minimum Humidity 61    
Precipitation  
Precipitation 0.03 in 0.11 in 1.10 in (2008)
Month to date precipitation 0.95 1.96  
Year to date precipitation 7.43  
Sea Level Pressure  
Sea Level Pressure 29.75 in    
Wind  
Wind Speed 16 mph (WSW)    
Max Wind Speed 33 mph    
Max Gust Speed 44 mph    
Visibility 5 miles    
Events Fog , Rain , Snow    
T = Trace of Precipitation, MM = Missing Value Source: NWS Daily Summary

Daily Weather History Graph

Daily Weather History Graph

Search for Another Location

Airport or City:

Astronomy

Mar. 19, 2013 Rise Set
Actual Time 7:20 AM EDT 7:26 PM EDT
Civil Twilight 6:52 AM EDT 7:54 PM EDT
Nautical Twilight 6:20 AM EDT 8:26 PM EDT
Astronomical Twilight 5:47 AM EDT 8:59 PM EDT
Moon 12:05 PM EDT (3/19) 2:15 AM EDT (3/19)
Length of Visible Light 13h 01m
Length of Day
12h 06m
Waxing Crescent, 49% of the Moon is Illuminated
Mar 19
Waxing Crescent
Mar 19
First Quarter
Mar 27
Full
Apr 3
Last Quarter
Apr 10
New

Hourly Weather History & Observations

Time (EDT) Temp. Windchill Dew Point Humidity Pressure Visibility Wind Dir Wind Speed Gust Speed Precip Events Conditions
12:28 AM 30.2 °F 21.3 °F 28.4 °F 93% 29.70 in 2.5 mi ESE 10.4 mph 23.0 mph 0.00 in Rain Light Freezing Rain
12:48 AM 30.2 °F 22.6 °F 28.4 °F 93% 29.69 in 4.0 mi SE 8.1 mph 18.4 mph 0.01 in Rain Light Freezing Rain
12:56 AM 30.9 °F 22.8 °F 28.9 °F 92% 29.75 in 7.0 mi SE 9.2 mph 20.7 mph 0.01 in Rain Light Freezing Rain
1:20 AM 30.2 °F 21.3 °F 30.2 °F 100% 29.68 in 2.5 mi SE 10.4 mph 17.3 mph 0.00 in Rain Light Freezing Rain
1:56 AM 30.9 °F 22.2 °F 30.0 °F 96% 29.73 in 2.0 mi ESE 10.4 mph - 0.00 in Rain Light Freezing Rain
2:22 AM 30.2 °F 21.9 °F 30.2 °F 100% 29.67 in 2.5 mi SE 9.2 mph - 0.00 in   Overcast
2:49 AM 30.2 °F 21.3 °F 30.2 °F 100% 29.66 in 2.5 mi SE 10.4 mph - 0.00 in   Overcast
2:56 AM 30.9 °F 22.2 °F 30.0 °F 96% 29.72 in 2.5 mi SE 10.4 mph - 0.00 in   Overcast
3:16 AM 30.2 °F 23.4 °F 30.2 °F 100% 29.66 in 1.8 mi SE 6.9 mph 16.1 mph N/A   Overcast
3:36 AM 30.2 °F 25.4 °F 30.2 °F 100% 29.67 in 2.5 mi South 4.6 mph - N/A   Overcast
3:56 AM 30.9 °F 26.2 °F 30.9 °F 100% 29.71 in 2.0 mi ESE 4.6 mph - N/A   Overcast
4:04 AM 32.0 °F - 30.2 °F 93% 29.66 in 1.5 mi Calm Calm - N/A   Overcast
4:56 AM 32.0 °F 28.7 °F 30.9 °F 96% 29.73 in 1.8 mi SW 3.5 mph - 0.01 in   Overcast
5:40 AM 32.0 °F 22.5 °F 32.0 °F 100% 29.69 in 2.5 mi West 12.7 mph - 0.02 in   Overcast
5:56 AM 32.0 °F 20.5 °F 30.0 °F 92% 29.75 in 4.0 mi West 18.4 mph 33.4 mph 0.02 in   Overcast
6:04 AM 32.0 °F 20.8 °F 30.2 °F 93% 29.70 in 10.0 mi West 17.3 mph 29.9 mph N/A   Overcast
6:29 AM 32.0 °F 22.5 °F 30.2 °F 93% 29.71 in 10.0 mi West 12.7 mph - N/A   Overcast
6:33 AM 32.0 °F 23.0 °F 28.4 °F 87% 29.72 in 10.0 mi West 11.5 mph - N/A   Overcast
6:54 AM 32.0 °F 23.0 °F 28.4 °F 87% 29.73 in 10.0 mi WSW 11.5 mph - N/A   Overcast
6:56 AM 32.0 °F 22.1 °F 28.9 °F 88% 29.78 in 10.0 mi WSW 13.8 mph - N/A   Overcast
7:14 AM 30.2 °F 21.3 °F 28.4 °F 93% 29.72 in 10.0 mi WSW 10.4 mph - N/A   Mostly Cloudy
7:24 AM 30.2 °F 20.2 °F 28.4 °F 93% 29.72 in 10.0 mi WSW 12.7 mph - N/A   Mostly Cloudy
7:56 AM 30.9 °F 21.2 °F 28.9 °F 92% 29.77 in 10.0 mi WSW 12.7 mph - N/A   Overcast
8:56 AM 32.0 °F 22.5 °F 28.0 °F 85% 29.76 in 10.0 mi SW 12.7 mph 21.9 mph N/A   Overcast
9:56 AM 33.1 °F 23.0 °F 28.0 °F 82% 29.73 in 7.0 mi SW 15.0 mph 24.2 mph N/A   Overcast
10:12 AM 33.8 °F 23.5 °F 28.4 °F 81% 29.67 in 7.0 mi SW 16.1 mph 26.5 mph N/A   Overcast
10:54 AM 33.8 °F 22.5 °F 28.4 °F 81% 29.67 in 10.0 mi WSW 19.6 mph 31.1 mph N/A   Mostly Cloudy
10:56 AM 34.0 °F 23.0 °F 28.0 °F 79% 29.71 in 7.0 mi WSW 18.4 mph 29.9 mph N/A   Mostly Cloudy
11:24 AM 33.8 °F 22.5 °F 28.4 °F 81% 29.67 in 3.0 mi WSW 19.6 mph 29.9 mph 0.00 in Snow Light Snow
11:26 AM 33.8 °F 21.9 °F 28.4 °F 81% 29.67 in 0.8 mi West 21.9 mph 28.8 mph 0.00 in Snow Light Snow
11:39 AM 32.0 °F 19.2 °F 28.4 °F 87% 29.66 in 2.0 mi WSW 23.0 mph 29.9 mph 0.00 in Snow Light Snow
11:47 AM 33.8 °F 21.6 °F 28.4 °F 81% 29.66 in 3.0 mi WSW 23.0 mph 27.6 mph 0.00 in Snow Light Snow
11:56 AM 32.0 °F 19.8 °F 28.0 °F 85% 29.72 in 5.0 mi WSW 20.7 mph 32.2 mph 0.00 in   Overcast
12:27 PM 33.8 °F 23.2 °F 26.6 °F 75% 29.67 in 10.0 mi WSW 17.3 mph 25.3 mph N/A   Scattered Clouds
12:56 PM 34.0 °F 22.4 °F 25.0 °F 70% 29.71 in 10.0 mi WSW 20.7 mph 26.5 mph N/A   Overcast
1:56 PM 33.1 °F 21.2 °F 21.9 °F 64% 29.74 in 10.0 mi West 20.7 mph 31.1 mph N/A   Overcast
2:56 PM 30.9 °F 19.4 °F 19.9 °F 64% 29.76 in 6.0 mi West 17.3 mph 32.2 mph 0.00 in Snow Light Snow
3:56 PM 30.0 °F 16.0 °F 18.0 °F 61% 29.79 in 10.0 mi West 25.3 mph 32.2 mph 0.00 in   Overcast
4:56 PM 28.9 °F 15.4 °F 17.1 °F 61% 29.82 in 10.0 mi West 21.9 mph 28.8 mph N/A   Overcast
5:45 PM 26.6 °F 11.7 °F 19.4 °F 74% 29.79 in 1.8 mi WSW 24.2 mph 31.1 mph 0.00 in Snow Light Snow
5:56 PM 27.0 °F 14.7 °F 19.9 °F 75% 29.84 in 3.0 mi West 16.1 mph 28.8 mph 0.00 in Snow Light Snow
6:03 PM 26.6 °F 14.3 °F 19.4 °F 74% 29.79 in 1.8 mi West 16.1 mph 24.2 mph 0.00 in Snow Light Snow
6:12 PM 26.6 °F 13.4 °F 21.2 °F 80% 29.79 in 0.5 mi WSW 18.4 mph 26.5 mph 0.00 in Snow Snow
6:35 PM 26.6 °F 13.8 °F 21.2 °F 80% 29.80 in 2.0 mi West 17.3 mph 24.2 mph 0.00 in Snow Light Snow
6:44 PM 26.6 °F 15.7 °F 21.2 °F 80% 29.80 in 1.2 mi West 12.7 mph 24.2 mph 0.00 in Snow Light Snow
6:56 PM 25.0 °F 11.3 °F 21.0 °F 85% 29.86 in 0.5 mi WSW 18.4 mph - 0.00 in Fog , Snow Snow
7:11 PM 24.8 °F 12.4 °F 21.2 °F 86% 29.81 in 2.0 mi WSW 15.0 mph 23.0 mph 0.00 in Snow Light Snow
7:16 PM 24.8 °F 11.9 °F 21.2 °F 86% 29.81 in 6.0 mi WSW 16.1 mph 23.0 mph 0.00 in   Overcast
7:50 PM 24.8 °F 12.4 °F 19.4 °F 80% 29.81 in 2.5 mi West 15.0 mph 23.0 mph 0.00 in Snow Light Snow
7:51 PM 25.0 °F 11.7 °F 19.9 °F 81% 29.87 in 2.0 mi WSW 17.3 mph 23.0 mph 0.00 in Snow Light Snow
7:56 PM 24.8 °F 11.9 °F 21.2 °F 86% 29.81 in 0.8 mi West 16.1 mph 25.3 mph 0.00 in Snow Light Snow
8:05 PM 24.8 °F 11.9 °F 21.2 °F 86% 29.82 in 0.8 mi West 16.1 mph 25.3 mph 0.00 in Snow Light Snow
8:13 PM 24.8 °F 15.3 °F 21.2 °F 86% 29.81 in 0.5 mi West 9.2 mph 25.3 mph 0.00 in Fog , Snow Light Snow
8:17 PM 24.8 °F 11.9 °F 21.2 °F 86% 29.82 in 1.0 mi West 16.1 mph 25.3 mph 0.00 in Snow Light Snow
8:20 PM 24.8 °F 12.4 °F 21.2 °F 86% 29.82 in 3.0 mi West 15.0 mph 25.3 mph 0.00 in   Overcast
8:37 PM 24.8 °F 11.1 °F 17.6 °F 74% 29.82 in 6.0 mi West 18.4 mph 26.5 mph 0.00 in   Haze
8:56 PM 24.1 °F 13.1 °F 18.0 °F 77% 29.89 in 10.0 mi West 11.5 mph 21.9 mph 0.00 in   Mostly Cloudy
9:28 PM 24.8 °F 12.9 °F 17.6 °F 74% 29.83 in 10.0 mi West 13.8 mph - N/A   Overcast
9:56 PM 24.1 °F 10.6 °F 17.1 °F 75% 29.89 in 10.0 mi WSW 17.3 mph 21.9 mph N/A   Overcast
10:56 PM 25.0 °F 11.3 °F 16.0 °F 69% 29.89 in 9.0 mi West 18.4 mph 25.3 mph N/A   Overcast
11:56 PM 25.0 °F 11.3 °F 16.0 °F 69% 29.89 in 7.0 mi WSW 18.4 mph 29.9 mph N/A   Overcast